Location: Ida Center
(41.8662°N, 83.5713°W)
Time: 20:42:17
(UTC+00:00)

Cosmos 1151 Rocket - Pass Details

Date: 17 November 2019
Orbit: 593 x 615 km, 82.5° (Epoch: 07 December)

Event Time Altitude Azimuth Distance (km) Brightness Sun altitude
Rises 23:20:05 0° 170° (S) 2,857 6.5 -12.8°
Reaches altitude 10° 23:22:22 10° 163° (SSE) 1,961 5.6 -13.2°
Maximum altitude 23:26:28 43° 92° (E) 869 3.4 -13.9°
Drops below altitude 10° 23:30:37 10° 22° (NNE) 1,984 5.3 -14.7°
Enters shadow 23:31:40 - 18° (NNE) 2,393 5.8 -14.9°
